Regional Weather Roundup
Issued by NWS Huntsville, AL

Home | Current Version | Previous Version | Text Only | Print | Product List | Glossary On
Versions: 1 2 3 4 5 6 7 8 9 10 11 12 13 14 15 16 17 18 19 20 21 22 23 24 25 26 27 28 29 30 31 32 33 34 35 36 37 38 39 40 41 42 43 44 45 46 47 48 49 50
000
ASUS44 KHUN 130410
RWRHUN

WEATHER ROUNDUP FOR THE TENNESSEE VALLEY
NATIONAL WEATHER SERVICE HUNTSVILLE AL
1100 PM CDT SAT JUL 12 2014

ALZ001>004-130500-
NORTHWEST ALABAMA

CITY           SKY/WX    TMP DP  RH WIND       PRES   REMARKS
COURTLAND HCN    N/A     79 N/A N/A CALM        N/A
RUSSELLVILLE     N/A     73 N/A N/A MISG        N/A
SHOALS AIRPORT CLEAR     77  71  82 CALM      30.12R
$$

ALZ005>007-016-130500-
NORTH CENTRAL ALABAMA

CITY           SKY/WX    TMP DP  RH WIND       PRES   REMARKS
CULLMAN AG STN   N/A     75 N/A N/A CALM        N/A
DECATUR AP     MOCLDY    77  74  90 CALM      30.12S
HUNTSVILLE AP  PTCLDY    81  74  79 CALM      30.12R
MERIDIANVILLE  PTCLDY    75  70  83 CALM      30.13S
VINEMONT AP    FAIR      76  72  86 CALM      30.16S
$$

ALZ008>010-130500-
NORTHEAST ALABAMA

CITY           SKY/WX    TMP DP  RH WIND       PRES   REMARKS
ALBERTVILLE    CLEAR     77  73  88 S3        30.14S
FORT PAYNE     PTCLDY   N/A N/A N/A CALM      30.14S
SCOTTSBORO AP  PTCLDY    75  73  94 CALM      30.14R
SCOTTSBORO HCN   N/A     75 N/A N/A MISG        N/A
VALLEY HEAD      N/A     73 N/A N/A MISG        N/A
$$

TNZ076-096-097-130500-
SOUTHEASTERN MIDDLE TENNESSEE

CITY           SKY/WX    TMP DP  RH WIND       PRES   REMARKS
FAYETTEVILLE   CLEAR     77  70  78 CALM      30.14S
TULLAHOMA      CLEAR     73  68  83 SW3       30.15S
WINCHESTER     CLEAR     75  72  88 CALM      30.15R
$$

...SURROUNDING SITES...

CITY           SKY/WX    TMP DP  RH WIND       PRES   REMARKS
ATLANTA        PTCLDY    78  68  71 SE3       30.15S
ANNISTON       CLEAR     76  72  87 CALM      30.13S
BIRMINGHAM     PTCLDY    77  70  79 CALM      30.14S
CHATTANOOGA    MOCLDY    77  71  82 CALM      30.14S
CORINTH        FAIR      73  72  94 CALM      30.11R FOG
DALTON         PTCLDY    73  73 100 CALM      30.14F
GADSDEN        CLEAR     75  70  83 CALM      30.12S
GOLDEN TRNGL   CLOUDY    79  72  78 CALM      30.12R
HALEYVILLE     FAIR      74  73  96 E6        30.17R
JACKSON TN     CLEAR     74  71  91 S5        30.10R
LEWISBURG      FAIR      74  68  81 CALM      30.11F
MEMPHIS        PTCLDY    80  71  74 S6        30.09R
NASHVILLE      PTCLDY    78  69  73 S5        30.10S
ROME           CLEAR     76  71  85 CALM      30.13S
SAVANNAH       CLEAR     72  72 100 CALM      30.12R
TUPELO         CLEAR     77  72  84 CALM      30.10S
TUSCALOOSA     PTCLDY    79  74  84 CALM      30.11R
$$

...GULF COAST WEATHER...

CITY           SKY/WX    TMP DP  RH WIND       PRES   REMARKS
GULFPORT       CLEAR     81  75  82 CALM      30.09S
PASCAGOULA     PTCLDY    76  75  97 CALM      30.09S
MOBILE         MOCLDY    79  76  90 CALM      30.11S
GULF SHORES    PTCLDY    75  73  94 CALM      30.10S
PENSACOLA      MOCLDY    77  75  93 NW5       30.09S
DESTIN         MOCLDY    80  75  84 CALM      30.09F
APPALACHICOLA  CLEAR     79  73  82 CALM      30.10S
$$




USA.gov is the U.S. government's official web portal to all federal, state and local government web resources and services.